| time (UTC) | temp C | wind direction | speed KPH | gust KPH | rain 1hr cm | rain 24hr cm | rain mn cm | humidity % | barometer mb |
| 20260502163707 | 21 | 221 | 12.9 | 30.6 | 0.00 | 0.00 | 0.00 | 43 | 1009.9 |
| 20260502161205 | 21 | 237 | 17.7 | 29.0 | 0.00 | 0.00 | 0.00 | 43 | 1010.0 |
| 20260502160204 | 21 | 221 | 17.7 | 29.0 | 0.00 | 0.00 | 0.00 | 42 | 1010.1 |
| 20260502152205 | 21 | 217 | 17.7 | 32.2 | 0.00 | 0.00 | 0.00 | 41 | 1010.6 |
| 20260502151713 | 21 | 167 | 17.7 | 32.2 | 0.00 | 0.00 | 0.00 | 41 | 1010.7 |
| 20260502151204 | 21 | 221 | 16.1 | 30.6 | 0.00 | 0.00 | 0.00 | 42 | 1010.7 |
| 20260502150704 | 21 | 236 | 14.5 | 30.6 | 0.00 | 0.00 | 0.00 | 41 | 1010.7 |
| 20260502150205 | 21 | 198 | 12.9 | 27.4 | 0.00 | 0.00 | 0.00 | 41 | 1010.9 |
| 20260502130706 | 21 | 226 | 14.5 | 29.0 | 0.00 | 0.00 | 0.00 | 39 | 1012.1 |
| 20260502130204 | 21 | 217 | 12.9 | 29.0 | 0.00 | 0.00 | 0.00 | 38 | 1011.9 |
| 20260502123704 | 21 | 234 | 17.7 | 37.0 | 0.00 | 0.00 | 0.00 | 37 | 1012.3 |
| 20260502123205 | 21 | 232 | 17.7 | 37.0 | 0.00 | 0.00 | 0.00 | 38 | 1012.3 |
| 20260502122704 | 21 | 271 | 16.1 | 37.0 | 0.00 | 0.00 | 0.00 | 35 | 1012.3 |
| 20260502122205 | 21 | 250 | 14.5 | 30.6 | 0.00 | 0.00 | 0.00 | 37 | 1012.4 |
| 20260502121204 | 21 | 268 | 16.1 | 35.4 | 0.00 | 0.00 | 0.00 | 36 | 1012.5 |
| 20260502120704 | 21 | 205 | 16.1 | 37.0 | 0.00 | 0.00 | 0.00 | 38 | 1012.4 |
| 20260502120204 | 21 | 225 | 19.3 | 37.0 | 0.00 | 0.00 | 0.00 | 39 | 1012.5 |
| 20260502115705 | 21 | 227 | 20.9 | 37.0 | 0.00 | 0.00 | 0.00 | 36 | 1012.6 |
| 20260502115204 | 21 | 244 | 20.9 | 38.6 | 0.00 | 0.00 | 0.00 | 36 | 1012.6 |
| 20260502114705 | 21 | 214 | 20.9 | 41.8 | 0.00 | 0.00 | 0.00 | 37 | 1012.8 |
| 20260502114207 | 21 | 240 | 20.9 | 41.8 | 0.00 | 0.00 | 0.00 | 38 | 1012.7 |
| 20260502113204 | 21 | 213 | 22.5 | 41.8 | 0.00 | 0.00 | 0.00 | 39 | 1012.9 |
| 20260502112205 | 21 | 221 | 16.1 | 35.4 | 0.00 | 0.00 | 0.00 | 41 | 1012.9 |
| 20260502111704 | 21 | 258 | 16.1 | 37.0 | 0.00 | 0.00 | 0.00 | 43 | 1012.9 |
| 20260502111205 | 21 | 217 | 19.3 | 37.0 | 0.00 | 0.00 | 0.00 | 41 | 1013.0 |
| 20260502110704 | 21 | 242 | 20.9 | 37.0 | 0.00 | 0.00 | 0.00 | 40 | 1013.2 |
| 20260502110204 | 21 | 216 | 19.3 | 35.4 | 0.00 | 0.00 | 0.00 | 41 | 1013.2 |
| 20260502105704 | 21 | 192 | 16.1 | 33.8 | 0.00 | 0.00 | 0.00 | 41 | 1013.2 |
| 20260502105204 | 21 | 229 | 19.3 | 35.4 | 0.00 | 0.00 | 0.00 | 42 | 1013.2 |
| 20260502103704 | 20 | 218 | 20.9 | 40.2 | 0.00 | 0.00 | 0.00 | 41 | 1013.2 |
| 20260502103205 | 20 | 219 | 19.3 | 40.2 | 0.00 | 0.00 | 0.00 | 45 | 1013.3 |
| 20260502102704 | 20 | 209 | 17.7 | 37.0 | 0.00 | 0.00 | 0.00 | 43 | 1013.4 |
| 20260502102205 | 20 | 223 | 17.7 | 37.0 | 0.00 | 0.00 | 0.00 | 44 | 1013.4 |
| 20260502101205 | 20 | 238 | 17.7 | 33.8 | 0.00 | 0.00 | 0.00 | 45 | 1013.5 |
| 20260502100204 | 20 | 182 | 16.1 | 32.2 | 0.00 | 0.00 | 0.00 | 44 | 1013.7 |
| 20260502091205 | 18 | 221 | 14.5 | 24.1 | 0.00 | 0.00 | 0.00 | 54 | 1014.1 |
| 20260502090704 | 18 | 215 | 12.9 | 24.1 | 0.00 | 0.00 | 0.00 | 53 | 1014.2 |
| 20260502090204 | 18 | 174 | 11.3 | 24.1 | 0.00 | 0.00 | 0.00 | 53 | 1014.2 |
| 20260502071207 | 14 | 215 | 11.3 | 24.1 | 0.00 | 0.00 | 0.00 | 63 | 1015.2 |
| 20260502070706 | 14 | 194 | 12.9 | 24.1 | 0.00 | 0.00 | 0.00 | 63 | 1015.3 |
| 20260502070208 | 13 | 193 | 11.3 | 20.9 | 0.00 | 0.00 | 0.00 | 64 | 1015.3 |
| 20260502065705 | 13 | 183 | 11.3 | 22.5 | 0.00 | 0.00 | 0.00 | 64 | 1015.4 |
| 20260502065205 | 13 | 162 | 11.3 | 22.5 | 0.00 | 0.00 | 0.00 | 65 | 1015.4 |
| 20260502064208 | 13 | 177 | 11.3 | 22.5 | 0.00 | 0.00 | 0.00 | 65 | 1015.5 |
| 20260502063705 | 13 | 182 | 9.7 | 22.5 | 0.00 | 0.00 | 0.00 | 65 | 1015.6 |
| 20260502063206 | 13 | 231 | 8.0 | 22.5 | 0.00 | 0.00 | 0.00 | 66 | 1015.6 |
| 20260502062707 | 13 | 173 | 9.7 | 16.1 | 0.00 | 0.00 | 0.00 | 66 | 1015.7 |
| 20260502062208 | 12 | 223 | 9.7 | 20.9 | 0.00 | 0.00 | 0.00 | 67 | 1015.6 |
| 20260502060704 | 12 | 230 | 9.7 | 16.1 | 0.00 | 0.00 | 0.00 | 69 | 1015.9 |
| 20260502055705 | 11 | 236 | 9.7 | 20.9 | 0.00 | 0.00 | 0.00 | 71 | 1015.9 |
| 20260502055206 | 11 | 203 | 9.7 | 20.9 | 0.00 | 0.00 | 0.00 | 71 | 1016.0 |
| 20260502054725 | 11 | 206 | 9.7 | 16.1 | 0.00 | 0.00 | 0.00 | 72 | 1016.0 |
| 20260502054206 | 11 | 202 | 8.0 | 17.7 | 0.00 | 0.00 | 0.00 | 73 | 1016.1 |
| 20260502053704 | 11 | 236 | 9.7 | 17.7 | 0.00 | 0.00 | 0.00 | 74 | 1016.1 |
| 20260502053205 | 11 | 188 | 9.7 | 17.7 | 0.00 | 0.00 | 0.00 | 75 | 1016.2 |
| 20260502052706 | 10 | 192 | 8.0 | 16.1 | 0.00 | 0.00 | 0.00 | 75 | 1016.2 |
| 20260502052205 | 10 | 199 | 6.4 | 11.3 | 0.00 | 0.00 | 0.00 | 76 | 1016.3 |
| 20260502051721 | 10 | 194 | 4.8 | 11.3 | 0.00 | 0.00 | 0.00 | 78 | 1016.4 |
| 20260502051206 | 10 | 138 | 4.8 | 11.3 | 0.00 | 0.00 | 0.00 | 79 | 1016.4 |
| 20260502050706 | 9 | 190 | 3.2 | 9.7 | 0.00 | 0.00 | 0.00 | 80 | 1016.4 |
| 20260502050206 | 9 | 190 | 3.2 | 8.0 | 0.00 | 0.00 | 0.00 | 81 | 1016.5 |
| 20260502045706 | 8 | 171 | 1.6 | 8.0 | 0.00 | 0.00 | 0.00 | 81 | 1016.6 |
| 20260502045205 | 8 | 182 | 1.6 | 8.0 | 0.00 | 0.00 | 0.00 | 81 | 1016.7 |
| 20260502044723 | 8 | 183 | 1.6 | 8.0 | 0.00 | 0.00 | 0.00 | 81 | 1016.7 |
| 20260502044206 | 8 | 213 | 1.6 | 6.4 | 0.00 | 0.00 | 0.00 | 82 | 1016.7 |
| 20260502043706 | 8 | 213 | 1.6 | 6.4 | 0.00 | 0.00 | 0.00 | 82 | 1016.8 |
| 20260502043209 | 8 | 221 | 1.6 | 6.4 | 0.00 | 0.00 | 0.00 | 83 | 1016.9 |
| 20260502042709 | 7 | 222 | 1.6 | 6.4 | 0.00 | 0.00 | 0.00 | 84 | 1016.9 |
| 20260502042206 | 7 | 222 | 1.6 | 6.4 | 0.00 | 0.00 | 0.00 | 84 | 1016.9 |
| 20260502042016 | 7 | 222 | 1.6 | 3.2 | 0.00 | 0.00 | 0.00 | 84 | 1017.0 |
| 20260502041206 | 7 | 222 | 0.0 | 3.2 | 0.00 | 0.00 | 0.00 | 84 | 1017.2 |
| 20260502040705 | 7 | 222 | 0.0 | 1.6 | 0.00 | 0.00 | 0.00 | 84 | 1017.3 |
| 20260502035706 | 6 | 223 | 0.0 | 4.8 | 0.00 | 0.00 | 0.00 | 84 | 1017.3 |
| 20260502034211 | 6 | 222 | 0.0 | 1.6 | 0.00 | 0.00 | 0.00 | 82 | 1017.5 |
| 20260502033710 | 7 | 222 | 0.0 | 6.4 | 0.00 | 0.00 | 0.00 | 80 | 1017.5 |
| 20260502032705 | 7 | 222 | 1.6 | 6.4 | 0.00 | 0.00 | 0.00 | 78 | 1017.6 |
| 20260502032206 | 8 | 222 | 1.6 | 9.7 | 0.00 | 0.00 | 0.00 | 77 | 1017.7 |
| 20260502031205 | 8 | 195 | 4.8 | 12.9 | 0.00 | 0.00 | 0.00 | 79 | 1017.8 |
| 20260502030704 | 8 | 196 | 6.4 | 12.9 | 0.00 | 0.00 | 0.00 | 79 | 1017.9 |
| 20260502025706 | 8 | 188 | 4.8 | 8.0 | 0.00 | 0.00 | 0.00 | 80 | 1018.0 |
| 20260502025205 | 8 | 190 | 3.2 | 8.0 | 0.00 | 0.00 | 0.00 | 80 | 1018.0 |
| 20260502023705 | 7 | 225 | 4.8 | 8.0 | 0.00 | 0.00 | 0.00 | 80 | 1018.3 |
| 20260502023204 | 7 | 229 | 3.2 | 8.0 | 0.00 | 0.00 | 0.00 | 80 | 1018.3 |
| 20260502022705 | 7 | 169 | 3.2 | 8.0 | 0.00 | 0.00 | 0.00 | 81 | 1018.3 |
| 20260502022206 | 7 | 212 | 1.6 | 6.4 | 0.00 | 0.00 | 0.00 | 81 | 1018.2 |
| 20260502021714 | 7 | 178 | 1.6 | 9.7 | 0.00 | 0.00 | 0.00 | 78 | 1018.3 |
| 20260502021205 | 7 | 178 | 1.6 | 9.7 | 0.00 | 0.00 | 0.00 | 78 | 1018.4 |
| 20260502020705 | 7 | 178 | 3.2 | 9.7 | 0.00 | 0.00 | 0.00 | 79 | 1018.5 |
| 20260502020209 | 7 | 178 | 1.6 | 6.4 | 0.00 | 0.00 | 0.00 | 79 | 1018.5 |
| 20260502015207 | 7 | 190 | 1.6 | 4.8 | 0.00 | 0.00 | 0.00 | 77 | 1018.7 |
| 20260502014209 | 8 | 190 | 1.6 | 6.4 | 0.00 | 0.00 | 0.00 | 76 | 1018.9 |
| 20260502013709 | 8 | 190 | 3.2 | 6.4 | 0.00 | 0.00 | 0.00 | 76 | 1018.9 |
| 20260502013206 | 8 | 190 | 1.6 | 6.4 | 0.00 | 0.00 | 0.00 | 75 | 1019.0 |
| 20260502012210 | 8 | 190 | 3.2 | 8.0 | 0.00 | 0.00 | 0.00 | 74 | 1019.0 |
| 20260502012020 | 8 | 190 | 3.2 | 9.7 | 0.00 | 0.00 | 0.00 | 73 | 1019.1 |
| 20260502011207 | 8 | 189 | 4.8 | 11.3 | 0.00 | 0.00 | 0.00 | 73 | 1019.1 |
| 20260502010707 | 9 | 219 | 4.8 | 16.1 | 0.00 | 0.00 | 0.00 | 73 | 1019.1 |
| 20260502010209 | 9 | 203 | 6.4 | 16.1 | 0.00 | 0.00 | 0.00 | 73 | 1019.1 |
| 20260502005712 | 9 | 159 | 8.0 | 16.1 | 0.00 | 0.00 | 0.00 | 72 | 1019.3 |
| 20260502005208 | 9 | 178 | 8.0 | 16.1 | 0.00 | 0.00 | 0.00 | 73 | 1019.2 |
| 20260502004208 | 8 | 190 | 4.8 | 12.9 | 0.00 | 0.00 | 0.00 | 75 | 1019.4 |
| 20260502003205 | 7 | 190 | 1.6 | 4.8 | 0.00 | 0.00 | 0.00 | 78 | 1019.5 |
| 20260502002709 | 7 | 196 | 0.0 | 4.8 | 0.00 | 0.00 | 0.00 | 75 | 1019.6 |
| 20260502002510 | 7 | 196 | 0.0 | 8.0 | 0.00 | 0.00 | 0.00 | 74 | 1019.6 |
| 20260502001206 | 8 | 196 | 1.6 | 6.4 | 0.00 | 0.00 | 0.00 | 74 | 1019.7 |
| 20260502000706 | 8 | 198 | 1.6 | 6.4 | 0.00 | 0.00 | 0.00 | 74 | 1019.9 |
| 20260502000206 | 8 | 198 | 3.2 | 6.4 | 0.00 | 0.00 | 0.00 | 73 | 1020.0 |
| 20260501235206 | 8 | 198 | 1.6 | 4.8 | 0.00 | 0.00 | 0.00 | 72 | 1020.1 |
| 20260501235015 | 8 | 198 | 3.2 | 4.8 | 0.00 | 0.00 | 0.00 | 72 | 1020.0 |
| 20260501234208 | 8 | 198 | 3.2 | 8.0 | 0.00 | 0.00 | 0.00 | 71 | 1020.1 |
| 20260501233705 | 8 | 198 | 3.2 | 8.0 | 0.00 | 0.00 | 0.00 | 70 | 1020.1 |
| 20260501233206 | 8 | 198 | 3.2 | 6.4 | 0.00 | 0.00 | 0.00 | 70 | 1020.2 |
| 20260501232705 | 8 | 197 | 1.6 | 6.4 | 0.00 | 0.00 | 0.00 | 70 | 1020.2 |
| 20260501232209 | 8 | 196 | 1.6 | 6.4 | 0.00 | 0.00 | 0.00 | 71 | 1020.2 |
| 20260501232017 | 8 | 202 | 1.6 | 4.8 | 0.00 | 0.00 | 0.00 | 70 | 1020.2 |
| 20260501230705 | 9 | 202 | 1.6 | 4.8 | 0.00 | 0.00 | 0.00 | 67 | 1020.3 |
| 20260501230205 | 10 | 202 | 1.6 | 9.7 | 0.00 | 0.00 | 0.00 | 66 | 1020.3 |
| 20260501225706 | 10 | 201 | 1.6 | 9.7 | 0.00 | 0.00 | 0.00 | 65 | 1020.4 |
| 20260501225015 | 10 | 190 | 3.2 | 6.4 | 0.00 | 0.00 | 0.00 | 65 | 1020.5 |
| 20260501224205 | 10 | 192 | 1.6 | 6.4 | 0.00 | 0.00 | 0.00 | 66 | 1020.6 |
| 20260501223705 | 10 | 192 | 1.6 | 9.7 | 0.00 | 0.00 | 0.00 | 66 | 1020.6 |
| 20260501222705 | 10 | 193 | 3.2 | 6.4 | 0.00 | 0.00 | 0.00 | 66 | 1020.7 |
| 20260501221721 | 9 | 197 | 1.6 | 6.4 | 0.00 | 0.00 | 0.00 | 68 | 1020.7 |
| 20260501221205 | 9 | 197 | 0.0 | 3.2 | 0.00 | 0.00 | 0.00 | 68 | 1020.7 |
| 20260501220704 | 9 | 197 | 1.6 | 9.7 | 0.00 | 0.00 | 0.00 | 67 | 1020.7 |
| 20260501220213 | 10 | 197 | 1.6 | 9.7 | 0.00 | 0.00 | 0.00 | 66 | 1020.7 |
| 20260501215707 | 10 | 198 | 1.6 | 9.7 | 0.00 | 0.00 | 0.00 | 65 | 1020.7 |
| 20260501215205 | 10 | 200 | 3.2 | 8.0 | 0.00 | 0.00 | 0.00 | 64 | 1020.8 |
| 20260501214725 | 10 | 201 | 3.2 | 9.7 | 0.00 | 0.00 | 0.00 | 63 | 1020.8 |
| 20260501214208 | 11 | 189 | 3.2 | 9.7 | 0.00 | 0.00 | 0.00 | 62 | 1020.9 |
| 20260501213704 | 11 | 188 | 3.2 | 9.7 | 0.00 | 0.00 | 0.00 | 62 | 1021.0 |
| 20260501213205 | 11 | 187 | 4.8 | 9.7 | 0.00 | 0.00 | 0.00 | 61 | 1020.9 |
| 20260501212705 | 11 | 227 | 4.8 | 12.9 | 0.00 | 0.00 | 0.00 | 60 | 1021.1 |
| 20260501211722 | 11 | 184 | 4.8 | 11.3 | 0.00 | 0.00 | 0.00 | 60 | 1021.1 |
| 20260501211205 | 11 | 188 | 3.2 | 9.7 | 0.00 | 0.00 | 0.00 | 61 | 1021.2 |
| 20260501210705 | 11 | 182 | 1.6 | 6.4 | 0.00 | 0.00 | 0.00 | 61 | 1021.2 |
| 20260501210208 | 11 | 182 | 1.6 | 6.4 | 0.00 | 0.00 | 0.00 | 61 | 1021.3 |
| 20260501205705 | 11 | 184 | 3.2 | 8.0 | 0.00 | 0.00 | 0.00 | 60 | 1021.3 |
| 20260501205205 | 11 | 184 | 3.2 | 8.0 | 0.00 | 0.00 | 0.00 | 61 | 1021.4 |
| 20260501204206 | 11 | 222 | 3.2 | 8.0 | 0.00 | 0.00 | 0.00 | 61 | 1021.5 |
| 20260501203705 | 11 | 222 | 3.2 | 8.0 | 0.00 | 0.00 | 0.00 | 60 | 1021.6 |
| 20260501203205 | 11 | 223 | 3.2 | 6.4 | 0.00 | 0.00 | 0.00 | 60 | 1021.6 |
| 20260501202206 | 11 | 233 | 1.6 | 4.8 | 0.00 | 0.00 | 0.00 | 60 | 1021.7 |
| 20260501201717 | 11 | 233 | 1.6 | 4.8 | 0.00 | 0.00 | 0.00 | 60 | 1021.7 |
| 20260501201204 | 11 | 234 | 1.6 | 6.4 | 0.00 | 0.00 | 0.00 | 60 | 1021.7 |
| 20260501200706 | 11 | 234 | 1.6 | 6.4 | 0.00 | 0.00 | 0.00 | 60 | 1021.7 |
| 20260501195704 | 11 | 234 | 3.2 | 4.8 | 0.00 | 0.00 | 0.00 | 59 | 1021.9 |
| 20260501194705 | 11 | 234 | 3.2 | 8.0 | 0.00 | 0.00 | 0.00 | 57 | 1021.9 |
| 20260501194207 | 12 | 234 | 3.2 | 8.0 | 0.00 | 0.00 | 0.00 | 57 | 1021.9 |
| 20260501193705 | 12 | 234 | 3.2 | 9.7 | 0.00 | 0.00 | 0.00 | 56 | 1022.0 |
| 20260501192705 | 12 | 218 | 4.8 | 9.7 | 0.00 | 0.00 | 0.00 | 55 | 1022.2 |
| 20260501192205 | 12 | 218 | 4.8 | 8.0 | 0.00 | 0.00 | 0.00 | 55 | 1022.2 |
| 20260501191709 | 12 | 223 | 4.8 | 8.0 | 0.00 | 0.00 | 0.00 | 55 | 1022.2 |
| 20260501190705 | 12 | 241 | 3.2 | 4.8 | 0.00 | 0.00 | 0.00 | 55 | 1022.2 |
| 20260501190205 | 13 | 242 | 3.2 | 6.4 | 0.00 | 0.00 | 0.00 | 54 | 1022.3 |
| 20260501185706 | 13 | 242 | 3.2 | 8.0 | 0.00 | 0.00 | 0.00 | 52 | 1022.3 |
| 20260501185204 | 13 | 242 | 3.2 | 12.9 | 0.00 | 0.00 | 0.00 | 52 | 1022.2 |
| 20260501184207 | 13 | 219 | 3.2 | 8.0 | 0.00 | 0.00 | 0.00 | 50 | 1022.2 |
| 20260501183705 | 14 | 237 | 3.2 | 12.9 | 0.00 | 0.00 | 0.00 | 50 | 1022.2 |
| 20260501183207 | 14 | 237 | 3.2 | 22.5 | 0.00 | 0.00 | 0.00 | 49 | 1022.3 |
| 20260501182205 | 15 | 234 | 8.0 | 17.7 | 0.00 | 0.00 | 0.00 | 47 | 1022.3 |
| 20260501181713 | 15 | 274 | 8.0 | 25.7 | 0.00 | 0.00 | 0.00 | 46 | 1022.3 |
| 20260501181205 | 15 | 228 | 9.7 | 25.7 | 0.00 | 0.00 | 0.00 | 46 | 1022.4 |
| 20260501180705 | 15 | 242 | 9.7 | 25.7 | 0.00 | 0.00 | 0.00 | 45 | 1022.4 |
| 20260501180207 | 15 | 224 | 11.3 | 24.1 | 0.00 | 0.00 | 0.00 | 44 | 1022.4 |
| 20260501175706 | 16 | 255 | 11.3 | 24.1 | 0.00 | 0.00 | 0.00 | 44 | 1022.4 |
| 20260501175205 | 16 | 232 | 9.7 | 20.9 | 0.00 | 0.00 | 0.00 | 44 | 1022.4 |
| 20260501174716 | 16 | 284 | 9.7 | 20.9 | 0.00 | 0.00 | 0.00 | 44 | 1022.5 |
| 20260501174206 | 16 | 244 | 9.7 | 20.9 | 0.00 | 0.00 | 0.00 | 44 | 1022.5 |
| 20260501173704 | 16 | 225 | 8.0 | 20.9 | 0.00 | 0.00 | 0.00 | 43 | 1022.4 |
| 20260501173204 | 16 | 240 | 9.7 | 20.9 | 0.00 | 0.00 | 0.00 | 43 | 1022.5 |
| 20260501172705 | 16 | 259 | 9.7 | 22.5 | 0.00 | 0.00 | 0.00 | 43 | 1022.5 |
| 20260501171710 | 17 | 227 | 11.3 | 24.1 | 0.00 | 0.00 | 0.00 | 43 | 1022.5 |
| 20260501171205 | 17 | 215 | 12.9 | 24.1 | 0.00 | 0.00 | 0.00 | 42 | 1022.6 |
| 20260501170704 | 17 | 196 | 9.7 | 20.9 | 0.00 | 0.00 | 0.00 | 42 | 1022.7 |
| 20260501170206 | 17 | 209 | 9.7 | 20.9 | 0.00 | 0.00 | 0.00 | 43 | 1022.7 |
| 20260501165705 | 17 | 235 | 11.3 | 22.5 | 0.00 | 0.00 | 0.00 | 43 | 1022.7 |